Weather reports worldwide

Advertisment
Yeovilton, United Kingdom (3853): temperature & dewpoint: 08.12.2017 20:00:00 - 14.12.2017 20:00:00 (GMT)Yeovilton, United Kingdom (3853): temperature -20cm & temperature -100cm: 08.12.2017 20:00:00 - 14.12.2017 20:00:00 (GMT)Yeovilton, United Kingdom (3853): wind speed & gusts: 08.12.2017 20:00:00 - 14.12.2017 20:00:00 (GMT)Yeovilton, United Kingdom (3853): wind direction: 08.12.2017 20:00:00 - 14.12.2017 20:00:00 (GMT)Yeovilton, United Kingdom (3853): reduced air pressure: 08.12.2017 20:00:00 - 14.12.2017 20:00:00 (GMT)Yeovilton, United Kingdom (3853): visibility: 08.12.2017 20:00:00 - 14.12.2017 20:00:00 (GMT)Yeovilton, United Kingdom (3853): sunshine duration: 08.12.2017 20:00:00 - 14.12.2017 20:00:00 (GMT)Yeovilton, United Kingdom (3853): precipitation: 08.12.2017 20:00:00 - 14.12.2017 20:00:00 (GMT)
Date & Time tt [°C] td [°C] tt -20cm [°C] tt -100cm [°C] ff [km/h] ff [kn] fx [km/h] fx [kn] dd ppp [hPa] vv [km] sd [min] rr [mm]
14.12.2017 20:00:00 4,7 3,7 - - 15 8 - - W 990,0 10 0 1,4
14.12.2017 19:00:00 4,3 3,1 - - 13 7 - - SSW 989,2 7 0 0,4
14.12.2017 18:00:00 4,5 2,8 - - 18 10 - - SW 989,3 10 0 0,4
14.12.2017 17:00:00 4,3 2,2 - - 11 6 - - SW 989,5 8 0 0,0
14.12.2017 16:00:00 4,6 2,3 - - 13 7 - - SW 989,9 10 12 0,0
14.12.2017 15:00:00 5,8 3,0 - - 13 7 - - SW 990,6 10 36 0,2
14.12.2017 14:00:00 5,2 2,9 - - 13 7 - - WSW 991,5 7 0 0,0
14.12.2017 13:00:00 5,2 2,5 - - 21 11 - - WSW 992,2 10 6 0,2
14.12.2017 12:00:00 5,4 3,1 - - 13 7 - - SW 992,8 10 18 0,0
14.12.2017 11:00:00 4,7 2,8 - - 18 10 - - WSW 993,9 5 0 0,4
14.12.2017 10:00:00 4,6 2,4 - - 13 7 - - SW 994,4 10 6 0,0
14.12.2017 09:00:00 4,5 2,3 5,7 8,0 16 9 - - WSW 995,0 10 0 0,2
14.12.2017 08:00:00 4,1 1,9 - - 15 8 50 27 WSW 994,8 10 0 0,0
14.12.2017 07:00:00 4,9 2,3 - - 16 9 - - SW 995,0 10 0 0,2
14.12.2017 06:00:00 4,5 2,4 - - 13 7 - - SW 995,4 10 0 0,0
14.12.2017 05:00:00 4,7 2,4 - - 21 11 52 28 WSW 995,6 10 0 0,0
14.12.2017 04:00:00 4,9 2,0 - - 21 11 - - WSW 996,1 10 0 0,0
14.12.2017 03:00:00 5,0 2,8 - - 21 11 - - W 997,1 10 0 0,2
14.12.2017 02:00:00 5,4 2,3 - - 21 11 59 32 WSW 996,8 10 0 0,0
14.12.2017 01:00:00 5,3 2,1 - - 29 16 46 25 W 996,9 28 0 0,2
14.12.2017 00:00:00 5,0 2,6 - - 34 18 46 25 W 996,8 35 - 0,0
13.12.2017 23:00:00 5,0 1,1 - - 29 16 52 28 W 996,0 27 0 0,0
13.12.2017 22:00:00 4,8 1,2 - - 31 17 68 37 W 995,2 30 0 0,0
13.12.2017 21:00:00 5,2 1,5 - - 48 26 68 37 W 993,7 40 0 0,0
13.12.2017 20:00:00 5,2 3,0 - - 28 15 59 32 WSW 993,0 45 0 1,6
13.12.2017 19:00:00 4,6 3,3 - - 28 15 50 27 W 994,3 11 0 1,4
13.12.2017 18:00:00 4,1 2,4 - - 8 4 - - SSW 994,4 25 0 0,0
13.12.2017 17:00:00 5,4 3,4 - - 15 8 - - WSW 994,8 23 0 0,0
13.12.2017 16:00:00 6,1 3,4 - - 16 9 55 30 W 995,0 10 0 0,2
13.12.2017 15:00:00 7,5 5,0 - - 35 19 74 40 WNW 995,4 10 0 0,8
13.12.2017 14:00:00 10,1 7,7 - - 24 13 - - WSW 993,9 50 12 0,0
13.12.2017 13:00:00 9,4 7,9 - - 24 13 - - WSW 995,2 10 0 0,2
13.12.2017 12:00:00 9,7 7,6 - - 22 12 - - SW 996,4 10 12 0,0
13.12.2017 11:00:00 8,7 6,8 - - 26 14 - - SW 998,3 10 0 0,0
13.12.2017 10:00:00 8,0 6,3 - - 16 9 - - S 999,7 10 0 0,0
13.12.2017 09:00:00 7,4 6,2 5,4 8,2 15 8 - - SSW 1001,1 10 0 0,0
13.12.2017 08:00:00 7,9 6,1 - - 16 9 - - SW 1001,9 10 0 0,2
13.12.2017 07:00:00 7,5 5,9 - - 13 7 - - SW 1002,3 10 0 0,0
13.12.2017 06:00:00 7,6 5,8 - - 13 7 - - SW 1002,8 10 0 0,0
13.12.2017 05:00:00 7,1 5,5 - - 9 5 - - SW 1002,9 10 0 0,2
13.12.2017 04:00:00 6,9 5,5 - - 11 6 - - WSW 1003,3 10 0 0,0
13.12.2017 03:00:00 6,9 5,6 - - 13 7 - - W 1003,6 10 0 0,0
13.12.2017 02:00:00 7,0 5,9 - - 16 9 - - W 1003,2 10 0 0,0
13.12.2017 01:00:00 8,7 7,4 - - 21 11 - - W 1003,4 10 0 0,2
13.12.2017 00:00:00 9,6 8,8 - - 18 10 - - SW 1003,3 8 - 0,2
12.12.2017 23:00:00 9,0 8,1 - - 26 14 46 25 SSW 1004,0 8 0 0,0
12.12.2017 22:00:00 8,2 7,3 - - 28 15 - - SSW 1004,9 10 0 0,0
12.12.2017 21:00:00 7,5 6,1 - - 18 10 - - S 1006,4 10 0 1,0
12.12.2017 20:00:00 6,2 4,6 - - 9 5 - - S 1007,6 10 0 0,2
12.12.2017 19:00:00 5,8 3,5 - - 11 6 - - SSE 1008,0 10 0 0,0
12.12.2017 18:00:00 5,3 3,2 - - 8 4 - - S 1008,5 15 0 0,0
12.12.2017 17:00:00 4,8 3,0 - - 11 6 - - S 1009,0 10 0 0,0
12.12.2017 16:00:00 5,1 3,0 - - 11 6 - - S 1009,0 15 0 0,0
12.12.2017 15:00:00 5,0 3,4 - - 8 4 - - SSE 1009,5 10 0 0,0
12.12.2017 14:00:00 5,1 3,1 - - 9 5 - - SSW 1010,1 15 18 0,0
12.12.2017 13:00:00 4,6 3,0 - - 4 2 - - WSW 1009,8 10 12 0,0
12.12.2017 12:00:00 3,4 1,8 - - 4 2 - - SSE 1009,7 10 30 0,0
12.12.2017 11:00:00 1,2 -0,2 - - 4 2 - - ESE 1010,6 10 60 0,0
12.12.2017 10:00:00 -1,4 -2,2 - - 2 1 - - WNW 1010,1 10 54 0,0
12.12.2017 09:00:00 -3,2 -3,7 5,2 8,5 8 4 - - ESE 1009,2 10 18 0,0
12.12.2017 08:00:00 -4,9 -5,7 - - 5 3 - - SSE 1009,0 10 0 0,0
12.12.2017 07:00:00 -4,1 -4,7 - - 8 4 - - SE 1007,9 10 0 0,0
12.12.2017 06:00:00 -4,4 -5,2 - - 5 3 - - ESE 1007,3 20 0 0,0
12.12.2017 05:00:00 -3,9 -4,5 - - 8 4 - - E 1006,3 10 0 0,0
12.12.2017 04:00:00 -3,6 -4,3 - - 4 2 - - SSE 1005,5 10 0 0,0
12.12.2017 03:00:00 -2,1 -2,5 - - 9 5 - - WSW 1004,8 20 0 0,0
12.12.2017 02:00:00 -2,9 -3,8 - - 5 3 - - WSW 1003,7 10 0 0,0
12.12.2017 01:00:00 -2,9 -4,0 - - 4 2 - - NNW 1002,5 10 0 0,0
12.12.2017 00:00:00 -1,7 -2,9 - - 5 3 - - W 1001,5 10 - 0,0
11.12.2017 23:00:00 -1,8 -3,5 - - 11 6 - - W 1000,6 10 0 0,0
11.12.2017 22:00:00 -1,3 -3,9 - - 11 6 - - W 1000,0 10 0 0,0
11.12.2017 21:00:00 -1,5 -3,9 - - 9 5 - - WNW 998,7 10 0 0,0
11.12.2017 20:00:00 -1,1 -4,2 - - 11 6 - - W 997,3 10 0 0,0
11.12.2017 19:00:00 1,8 -3,6 - - 18 10 - - NNW 995,7 10 0 0,0
11.12.2017 18:00:00 1,9 -1,9 - - 16 9 - - NW 994,4 10 0 0,0
11.12.2017 17:00:00 1,5 -1,5 - - 11 6 - - NW 993,2 10 0 0,0
11.12.2017 16:00:00 2,9 -1,1 - - 15 8 - - NW 992,0 10 42 0,0
11.12.2017 15:00:00 3,5 -0,8 - - 28 15 - - NNW 990,6 10 60 0,0
11.12.2017 14:00:00 3,6 0,0 - - 28 15 - - NNW 989,2 10 60 0,0
11.12.2017 13:00:00 2,9 -0,3 - - 29 16 - - NNW 988,0 10 18 0,0
11.12.2017 12:00:00 2,5 -0,1 - - 24 13 - - NNW 986,7 10 0 0,0
11.12.2017 11:00:00 2,5 0,1 - - 29 16 46 25 N 985,3 10 0 0,0
11.12.2017 10:00:00 2,5 0,5 - - 29 16 - - N 983,6 10 0 0,2
11.12.2017 09:00:00 2,7 1,0 6,0 8,7 31 17 50 27 N 982,1 8 0 0,0
11.12.2017 08:00:00 2,3 1,2 - - 34 18 50 27 N 980,6 8 0 0,2
11.12.2017 07:00:00 2,3 1,2 - - 31 17 50 27 NNE 979,5 8 0 0,2
11.12.2017 06:00:00 2,3 1,1 - - 34 18 46 25 NNE 978,8 8 0 0,0
11.12.2017 05:00:00 1,9 0,9 - - 29 16 - - NNE 977,6 8 0 0,0
11.12.2017 04:00:00 1,8 0,9 - - 31 17 - - NNE 977,7 8 0 0,0
11.12.2017 03:00:00 1,9 1,0 - - 24 13 - - NE 978,8 10 0 0,0
11.12.2017 02:00:00 2,0 1,0 - - 16 9 - - NE 979,5 10 0 0,0
11.12.2017 01:00:00 2,0 0,9 - - 16 9 - - NE 979,4 10 0 0,0
11.12.2017 00:00:00 2,0 1,0 - - 16 9 - - ENE 979,6 17 - 0,0
10.12.2017 23:00:00 2,0 1,1 - - 16 9 - - E 979,3 14 0 0,0
10.12.2017 22:00:00 2,0 1,2 - - 15 8 - - E 979,3 10 0 0,0
10.12.2017 21:00:00 2,0 1,3 - - 13 7 - - E 979,1 10 0 0,0
10.12.2017 20:00:00 1,8 1,2 - - 9 5 - - ENE 979,1 9 0 0,0
10.12.2017 19:00:00 2,0 1,6 - - 8 4 - - E 979,1 13 0 0,0
10.12.2017 18:00:00 1,8 1,3 - - 11 6 - - NE 978,6 11 0 1,0
10.12.2017 17:00:00 2,1 1,6 - - 5 3 - - E 978,9 7 0 2,4
10.12.2017 16:00:00 2,3 1,5 - - 4 2 - - SE 978,8 50 0 0,2
10.12.2017 15:00:00 2,1 1,4 - - 2 1 - - NNE 978,6 16 0 0,2
10.12.2017 14:00:00 2,2 1,3 - - 8 4 - - NNW 978,4 5 0 0,4
10.12.2017 13:00:00 2,9 2,0 - - 21 11 - - NW 978,1 29 0 0,2
10.12.2017 12:00:00 3,5 2,6 - - 26 14 61 33 NW 977,4 15 0 1,6
10.12.2017 11:00:00 6,2 5,2 - - 46 25 89 48 WNW 976,1 5 0 0,6
10.12.2017 10:00:00 8,4 4,9 - - 52 28 81 44 W 974,5 27 0 0,4
10.12.2017 09:00:00 7,6 5,5 6,2 8,9 41 22 67 36 WSW 974,9 10 0 1,4
10.12.2017 08:00:00 8,5 5,9 - - 37 20 63 34 W 975,7 45 0 0,8
10.12.2017 07:00:00 6,2 5,6 - - 9 5 - - SSW 976,9 9 0 2,6
10.12.2017 06:00:00 5,9 5,1 - - 26 14 - - ESE 978,1 14 0 1,6
10.12.2017 05:00:00 6,0 5,3 - - 21 11 - - ESE 982,6 8 0 2,0
10.12.2017 04:00:00 5,3 4,8 - - 18 10 - - E 986,1 28 0 2,6
10.12.2017 03:00:00 4,0 3,5 - - 16 9 - - E 990,6 8 0 1,0
10.12.2017 02:00:00 3,6 2,8 - - 21 11 - - ESE 994,1 16 0 0,2
10.12.2017 01:00:00 3,4 1,9 - - 18 10 - - ESE 997,6 10 0 0,2
10.12.2017 00:00:00 2,8 0,9 - - 15 8 - - ESE 1000,9 40 - 0,2
09.12.2017 23:00:00 3,1 0,3 - - 11 6 - - ESE 1003,6 40 0 0,0
09.12.2017 22:00:00 2,7 0,9 - - 5 3 - - SE 1005,5 10 0 0,0
09.12.2017 21:00:00 2,5 0,4 - - 9 5 - - E 1007,3 10 0 0,0
09.12.2017 20:00:00 1,9 -0,1 - - 8 4 - - SE 1009,1 10 0 0,0
09.12.2017 19:00:00 1,4 -0,6 - - 11 6 - - ESE 1010,2 35 0 0,0
09.12.2017 18:00:00 0,9 -0,8 - - 9 5 - - SSE 1011,4 10 0 0,0
09.12.2017 17:00:00 1,5 -0,2 - - 5 3 - - SE 1012,3 35 0 0,0
09.12.2017 16:00:00 2,4 0,7 - - 8 4 - - SE 1013,3 10 0 0,0
09.12.2017 15:00:00 3,5 0,7 - - 4 2 - - SW 1014,3 23 0 0,0
09.12.2017 14:00:00 3,7 0,4 - - 8 4 - - WSW 1015,6 10 0 0,0
09.12.2017 13:00:00 3,7 0,4 - - 5 3 - - SW 1016,8 10 0 0,0
09.12.2017 12:00:00 3,5 0,7 - - 5 3 - - WSW 1018,0 10 36 0,0
09.12.2017 11:00:00 1,8 0,0 - - 5 3 - - SSW 1018,8 10 18 0,0
09.12.2017 10:00:00 -0,4 -1,7 - - 2 1 - - SSE 1019,6 28 6 0,0
09.12.2017 09:00:00 -1,7 -3,2 6,7 9,0 0 0 - - N 1020,0 10 0 0,0
09.12.2017 08:00:00 -1,5 -3,7 - - 4 2 - - W 1020,3 45 0 0,0
09.12.2017 07:00:00 -0,9 -1,6 - - 8 4 - - WSW 1020,6 45 0 0,0
09.12.2017 06:00:00 -1,5 -2,4 - - 8 4 - - SSE 1021,0 40 0 0,0
09.12.2017 05:00:00 -2,7 -4,4 - - 2 1 - - SE 1021,1 45 0 0,0
09.12.2017 04:00:00 -1,4 -3,9 - - 9 5 - - W 1021,4 10 0 0,0
09.12.2017 03:00:00 0,0 -1,3 - - 4 2 - - WSW 1021,7 10 0 0,0
09.12.2017 02:00:00 -0,6 -3,1 - - 5 3 - - SW 1021,9 50 0 0,0
09.12.2017 01:00:00 2,4 -0,3 - - 13 7 - - NW 1021,8 45 0 0,0
09.12.2017 00:00:00 1,1 -0,8 - - 13 7 - - WNW 1022,1 50 - 0,0
08.12.2017 23:00:00 2,6 0,3 - - 16 9 - - WNW 1022,0 45 0 0,0
08.12.2017 22:00:00 3,4 0,0 - - 16 9 - - NW 1022,2 10 0 0,0
08.12.2017 21:00:00 3,3 0,2 - - 22 12 48 26 NW 1022,1 10 0 0,0
08.12.2017 20:00:00 3,6 0,3 - - 31 17 52 28 NW 1022,1 40 0 0,0

tt = temperature
td = dewpoint
tt -20cm = temperature -20cm
tt -100cm = temperature -100cm
ff = wind speed
fx = gusts
dd = wind direction
ppp = reduced air pressure
vv = visibility
sd = sunshine duration
rr = precipitation

Next stations